Flag for Russia Weather past 2 weeks in Astrakhan, Russia

Now
37 °F

Fog.


Feels Like: 33 °F
Forecast: 39 / 48 °F
Wind: 6 mph from Southwest

Location: Astrakhan

Current Time: Dec 20, 2014 at 6:11:38 AM

Latest Report: Dec 20, 2014 at 5:30 AM


Visibility: 3 mi

Pressure: 30.12 "Hg

Humidity: 93%

Dew point: 36 °F

Location of AstrakhanLocation

Historic Weather in Astrakhan — Graph

°F

Astrakhan temperature yesterday

Maximum temperature yesterday: 45 °F (at 1:00 PM)
Minimum temperature yesterday: 36 °F (at 12:00 AM)
Average temperature yesterday: 39 °F

Past Weeks' High & Low Weather Summary

 TemperatureHumidityPressure
High45 °F (Dec 19, 1:00 PM)100% (Dec 11, 11:00 PM)30.74 "Hg (Dec 11, 11:00 PM)
Low7 °F (Dec 6, 10:30 PM)50% (Dec 6, 2:30 PM)30.07 "Hg (Dec 13, 4:00 AM)
Average29 °F85%30.36 "Hg
* Reported Dec 5 5:00 AM — Dec 20 5:00 AM, Astrakhan, Weather by CustomWeather, © 2014

Note: Actual official high and low records may vary slightly from our data, if they occured in-between our weather recording intervals... More about our weather records

Advertising

Astrakhan weather history for previous 24 hours

 ConditionsComfort  
Time TempWeatherWind HumidityBarometerVisibility
5:00 AM
Dec 20
37 °FFog.6 mph93%30.12 "Hg1 mi
4:30 AM37 °FFog.6 mph93%30.12 "Hg1 mi
4:00 AM37 °FFog.3 mph93%30.12 "Hg0 mi
3:30 AM37 °FFog.6 mph93%30.12 "Hg0 mi
3:00 AM39 °FFog.6 mph93%30.12 "Hg0 mi
2:30 AM39 °FFog.6 mph93%30.12 "Hg0 mi
2:00 AM39 °FFog.6 mph93%30.12 "Hg0 mi
1:30 AM39 °FFog.8 mph100%30.12 "Hg0 mi
1:00 AM41 °FFog.8 mph93%30.12 "Hg0 mi
12:00 AM41 °FFog.6 mph93%30.12 "Hg0 mi
11:30 PM
Dec 19
41 °FFog.6 mph93%30.12 "Hg0 mi
11:00 PM39 °FFog.6 mph100%30.12 "Hg0 mi
10:30 PM39 °FFog.6 mph100%30.12 "Hg0 mi
10:00 PM41 °FFog.8 mph93%30.12 "Hg0 mi
9:30 PM41 °FFog.6 mph93%30.12 "Hg0 mi
9:00 PM41 °FFog.8 mph93%30.12 "Hg1 mi
8:30 PM41 °FFog.6 mph93%30.12 "Hg0 mi
8:00 PM41 °FFog.3 mph93%30.12 "Hg0 mi
7:30 PM41 °FFog.3 mph93%30.12 "Hg0 mi
7:00 PM41 °FFog.6 mph93%30.12 "Hg0 mi
6:30 PM41 °FFog.6 mph93%30.12 "Hg0 mi
6:00 PM41 °FFog.6 mph93%30.09 "Hg1 mi
5:30 PM41 °FFog.6 mph93%30.09 "Hg1 mi
5:00 PM41 °FFog.3 mph93%30.09 "Hg1 mi
4:30 PM43 °FDrizzle. Fog.6 mph93%30.09 "Hg1 mi
4:00 PM43 °FFog.8 mph93%30.09 "Hg3 mi
3:30 PM43 °FLow clouds.6 mph93%30.09 "Hg5 mi
3:00 PM45 °FDrizzle. Low clouds.6 mph87%30.09 "Hg5 mi
2:30 PM45 °FMostly cloudy.6 mph87%30.09 "HgN/A
2:00 PM45 °FMostly cloudy.8 mph87%30.07 "HgN/A
1:30 PM45 °FMostly cloudy.8 mph87%30.07 "HgN/A
1:00 PM45 °FMostly cloudy.8 mph81%30.07 "HgN/A
12:30 PM43 °FMostly cloudy.8 mph81%30.07 "HgN/A
12:00 PM41 °FMostly cloudy.6 mph87%30.09 "HgN/A
11:30 AM41 °FMostly cloudy.8 mph87%30.09 "Hg5 mi
11:00 AM39 °FMostly cloudy.6 mph87%30.09 "Hg5 mi
10:30 AM39 °FMostly cloudy.6 mph87%30.09 "Hg5 mi
10:00 AM37 °FMostly cloudy.6 mph93%30.09 "Hg5 mi
9:30 AM37 °FMostly cloudy.6 mph87%30.09 "Hg5 mi
9:00 AM37 °FOvercast.6 mph87%30.09 "Hg5 mi
8:30 AM37 °FOvercast.6 mph87%30.09 "Hg5 mi
8:00 AM36 °FOvercast.8 mph93%30.07 "Hg5 mi
7:30 AM36 °FOvercast.6 mph93%30.07 "Hg5 mi
6:30 AM36 °FOvercast.8 mph93%30.07 "Hg5 mi
6:00 AM36 °FOvercast.8 mph93%30.07 "Hg5 mi
Weather by CustomWeather, © 2014

See weather overviewHow to use our weather pages